Regional Weather Roundup
Issued by NWS

Home | Current Version | Previous Version | Text Only | Print | Product List | Glossary Off
Versions: 1 2 3 4 5 6 7 8 9 10 11 12 13 14 15 16 17 18 19 20 21 22 23 24 25 26 27 28 29 30 31 32 33 34 35 36 37 38 39 40 41 42 43 44 45 46 47 48 49 50

000
ASUS45 KCYS 251410
RWRWY

WYOMING REGIONAL WEATHER ROUNDUP
NATIONAL WEATHER SERVICE CHEYENNE WY
800 AM MDT MON MAY 25 2015

NOTE:  "FAIR" INDICATES FEW OR NO CLOUDS BELOW 12,000 FEET
WITH NO SIGNIFICANT WEATHER AND/OR OBSTRUCTIONS TO VISIBILITY.

WYZ001-251500-
YELLOWSTONE NATIONAL PARK

CITY           SKY/WX    TMP DP  RH WIND       PRES   REMARKS
LK YELLOWSTONE   N/A     37  33  85 CALM      30.04S
W YELLOWSTONE  NOT AVBL

$$
WYZ002>013-054>058-071-098>099-251500-
NORTHERN WYOMING

CITY           SKY/WX    TMP DP  RH WIND       PRES   REMARKS
JACKSON        MOSUNNY   43  37  81 CALM      29.99S
CODY           CLOUDY    50  43  76 CALM      29.95S
GREYBULL       PTSUNNY   51  48  89 CALM      29.91S
WORLAND        CLOUDY    51  48  89 CALM      29.92R
SHERIDAN       CLOUDY    52  49  89 CALM      29.93R
BUFFALO        CLOUDY    49  46  90 NW9       29.93S
GILLETTE       CLOUDY    50  48  93 N12       29.90R
HULETT         LGT RAIN  50  48  93 N6        29.90R
NEWCASTLE      FAIR      54  43  66 NW12      29.86R

$$
WYZ014>020-022>026-101>103-251500-
CENTRAL WYOMING

CITY           SKY/WX    TMP DP  RH WIND       PRES   REMARKS
BIG PINEY      CLOUDY    44  40  85 NE3       30.01S
PINEDALE       CLOUDY    43  39  87 CALM      30.02R
DUBOIS         PTSUNNY   37  34  87 W5        29.99R WCI  34
LANDER         LGT RAIN  47  42  83 SW7       29.95S
RIVERTON       CLOUDY    46  43  89 W6        29.96S
CASPER         CLOUDY    47  42  83 NW7       29.94R
DOUGLAS        LGT RAIN  48  46  93 NW12      29.90S

$$
WYZ021-027>030-104>119-251500-
SOUTHERN WYOMING

CITY           SKY/WX    TMP DP  RH WIND       PRES   REMARKS
EVANSTON       CLOUDY    42  41  96 W8        30.01S
KEMMERER       CLOUDY    43  41  93 CALM      30.02R
FORT BRIDGER   CLOUDY    45  45 100 NW3       30.04R
ROCK SPRINGS   CLOUDY    43  39  86 CALM      30.01R
DIXON          LGT RAIN  44  40  87 CALM      30.03R
RAWLINS        CLOUDY    44  40  85 W7        29.98R
SARATOGA       CLOUDY    41  37  87 MISG      29.99R
LARAMIE        CLOUDY    41  37  86 NW9       29.94S
CHEYENNE       LGT RAIN  46  41  82 NW8       29.91R
TORRINGTON     LGT RAIN  49  48  97 W8        29.85R
PINE BLUFFS    LGT RAIN  45  45 100 NW7       29.90R

$$



USA.gov is the U.S. government's official web portal to all federal, state and local government web resources and services.